Regional Weather Roundup
Issued by NWS Kansas City/Pleasant Hill, MO

Home | Current Version | Previous Version | Text Only | Print | Product List | Glossary On
Versions: 1 2 3 4 5 6 7 8 9 10 11 12 13 14 15 16 17 18 19 20 21 22 23 24 25 26 27 28
000
ASUS43 KEAX 211910
RWREAX

WEATHER ROUNDUP FOR EASTERN KANSAS AND NORTHWEST MISSOURI
NATIONAL WEATHER SERVICE KANSAS CITY/PLEASANT HILL MO
100 PM CST SUN JAN 21 2018

KSZ040-057-103>105-MOZ028-029-037-043-212000-
...KANSAS CITY METROPOLITAN AREA...

CITY           SKY/WX    TMP DP  RH WIND       PRES   REMARKS
K.C. INTL      CLOUDY    57  50  77 S10       29.72F
K.C. DOWNTOWN  CLOUDY    59  50  72 CALM      29.71F
LEES SUMMIT    CLOUDY    59  53  80 S12       29.73F
OLATHE - IXD   CLOUDY    60  51  72 S17       29.72F
OLATHE - OJC   CLOUDY    59  51  75 SW10      29.72F
LAWRENCE       CLOUDY    60  50  69 S14       29.71F

$$

MOZ001>008-011>017-020>025-030>033-038>040-044>046-053-054-212000-
...NORTHERN AND CENTRAL MISSOURI...

CITY           SKY/WX    TMP DP  RH WIND       PRES   REMARKS
ST. JOSEPH     CLOUDY    58  50  75 S13       29.71F
MOSBY          CLOUDY    55  50  82 SE6       29.73F
WARRENSBURG    CLOUDY    64  52  63 S20G29    29.73F
WHITEMAN AFB   PTSUNNY   67  53  61 SW18G26   29.70F
CLINTON        MOSUNNY   68  52  56 SW21G29   29.75F
SEDALIA        PTSUNNY   68  55  63 S17G30    29.76F
WARSAW         NOT AVBL
CHILLICOTHE      N/A     54  50  86 SE8       29.76F
KIRKSVILLE     CLOUDY    55  53  93 S7        29.78F

$$

MOZ041-047>049-056>058-063>065-088>090-097-212000-
...EASTERN AND SOUTHERN MISSOURI...

CITY           SKY/WX    TMP DP  RH WIND       PRES   REMARKS
ST. LOUIS INTL CLOUDY    68  54  60 S17G28    29.85F
SPIRIT OF STL  CLOUDY    70  53  54 S17G28    29.82F
COLUMBIA       PTSUNNY   68  53  58 S17G26    29.78F
JEFFERSON CITY MOSUNNY   69  52  54 S23G32    29.78F
ROLLA          PTSUNNY   68  53  58 S22G32    29.83F
OSAGE BEACH    CLOUDY    69  54  58 S18G26    29.80F
SPRINGFIELD    PTSUNNY   70  53  54 SW20G38   29.79F
BRANSON        CLOUDY    68  54  60 S17G23    29.86F
JOPLIN         MOSUNNY   71  53  52 S30G43    29.76F
WEST PLAINS    CLOUDY    62  56  80 S10       29.90F

$$

IAZ060-094-KSZ022-034>040-054-083-096-NEZ052-066-093-212000-
...KANSAS...SOUTHEAST NEBRASKA AND IOWA...

CITY           SKY/WX    TMP DP  RH WIND       PRES   REMARKS
TOPEKA         CLOUDY    59  50  72 S9        29.69F
MANHATTAN      PTSUNNY   58  46  64 S13       29.66F
EMPORIA        CLOUDY    59  48  67 S20G26    29.69F
WICHITA        PTSUNNY   58  47  66 S23       29.66F
OMAHA          LGT RAIN  40  39  97 N9        29.76F FOG     WCI  34
LINCOLN        CLOUDY    40  38  93 N13       29.73F FOG     WCI  32
FALLS CITY     CLOUDY    54  49  83 S6        29.69F
LAMONI         CLOUDY    50  49  96 SE6       29.73F
DES MOINES     DRZL/FOG  41  40  96 NE8       29.78F VSB 1

$$





USA.gov is the U.S. government's official web portal to all federal, state and local government web resources and services.